Location: Unspecified
(0.0000°N, 0.0000°E)
Time: 13:56:35
(UTC+01:00)

Cosmos 1954 Rocket - Visible Passes

Search period start: 13 February 2016 00:00
Search period end: 23 February 2016 00:00
Orbit: 753 x 781 km, 74.0° (Epoch: 13 February)

Date Brightness Start Highest point End Pass type
(mag) Time Alt. Az. Time Alt. Az. Time Alt. Az.
13 Feb 6.3 05:03:16 10° NNE 05:07:14 22° ENE 05:11:14 10° SE visible
13 Feb 5.2 06:44:59 10° NW 06:48:59 22° WSW 06:53:02 10° SSW visible
14 Feb 4.3 06:08:00 17° NW 06:11:48 45° WSW 06:16:51 10° S visible
15 Feb 3.9 05:32:51 43° N 05:34:37 87° ENE 05:39:57 10° SSE visible
16 Feb 5.1 04:57:37 41° E 04:57:37 41° E 05:02:26 10° SSE visible
16 Feb 5.8 06:37:57 10° W 06:39:14 11° WSW 06:40:37 10° WSW visible
17 Feb 6.6 04:22:17 17° ESE 04:22:17 17° ESE 04:24:08 10° SE visible
17 Feb 5.2 06:02:36 23° WSW 06:02:36 23° WSW 06:06:12 10° SSW visible
18 Feb 5.2 05:27:10 29° SSW 05:27:10 29° SSW 05:29:56 10° S visible
19 Feb 6.2 04:51:38 18° SSE 04:51:38 18° SSE 04:52:59 10° SSE visible
